Regional Weather Roundup
Issued by NWS

Home | Current Version | Previous Version | Graphics & Text | Print | Product List | Glossary On
Versions: 1 2 3 4 5 6 7 8 9 10 11 12 13 14 15 16 17 18 19 20 21 22 23 24 25 26 27 28 29 30 31 32 33 34 35 36 37 38 39 40 41 42 43 44 45 46 47 48 49 50
000
ASUS43 KOAX 011310
RWRNE

WEATHER ROUNDUP FOR NEBRASKA
NATIONAL WEATHER SERVICE OMAHA NE
800 AM CDT MON SEP 01 2014

NOTES: SATELLITE DATA IS BEING USED TO AUGMENT CLOUD COVER ABOVE
       12000 FEET.
       "FAIR" INDICATES FEW OR NO CLOUDS BELOW 12,000 FEET WITH NO
       SIGNIFICANT WEATHER AND/OR OBSTRUCTIONS TO VISIBILITY.

  * THESE STATIONS DO NOT REPORT WEATHER SUCH AS RAIN...SNOW OR FOG.

NEZ001>004-019>022-054>056-011400-
NEBRASKA PANHANDLE

CITY           SKY/WX    TMP DP  RH WIND       PRES   REMARKS
SCOTTSBLUFF    PTCLDY    51  49  92 CALM      30.01R
ALLIANCE       PTCLDY    50  47  89 W7        29.99R
CHADRON        MOCLDY    48  46  93 W5        29.95S
KIMBALL        PTCLDY    46  45  96 W5        30.04R
SIDNEY         PTCLDY    48  46  93 SW5       30.03R
$$

NEZ057>060-069>072-079>082-011400-
SOUTHWEST NEBRASKA

CITY           SKY/WX    TMP DP  RH WIND       PRES   REMARKS
NORTH PLATTE   CLEAR     51  49  92 W5        29.96R
IMPERIAL       MOCLDY    54  49  83 NW7       29.99R
LEXINGTON      CLEAR     54  52  95 NW6       29.93R
MCCOOK         MOCLDY    56  53  90 W6        29.96R
OGALLALA       CLEAR     51  48  90 SW3       29.98R
$$

NEZ005>010-023>029-035>040-094-011400-
NORTH CENTRAL NEBRASKA

CITY           SKY/WX    TMP DP  RH WIND       PRES   REMARKS
VALENTINE      PTCLDY    53  52  96 SW9       29.91S
AINSWORTH      PTCLDY    54  52  95 W6        29.91S
BROKEN BOW     CLEAR     56  52  86 NW9       29.91R
O`NEILL        SUNNY     57  56  95 W7        29.87R
ORD            CLEAR     57  53  86 NW9       29.88R
THEDFORD       CLEAR     51  51  97 W3        29.95F
$$

NEZ041-046>049-061>064-073>077-083>087-011400-
SOUTH CENTRAL NEBRASKA

CITY           SKY/WX    TMP DP  RH WIND       PRES   REMARKS
GRAND ISLAND   SUNNY     58  55  90 NW9       29.88R
AURORA         SUNNY     58  57  97 W5        29.87R
HASTINGS       MOSUNNY   58  53  84 NW9       29.89R
HEBRON         SUNNY     61  56  83 NW3       29.88R
HOLDREGE       PTCLDY    56  53  91 N9        29.91S
KEARNEY *      PTCLDY    55  52  88 W10       29.92R
YORK           SUNNY     59 N/A N/A NW9       29.86R
$$

NEZ011>018-030>034-042>045-011400-
NORTHEAST NEBRASKA

CITY           SKY/WX    TMP DP  RH WIND       PRES   REMARKS
NORFOLK        SUNNY     60  57  89 W7        29.83R
ALBION         SUNNY     58  55  88 NW8       29.86S
BLAIR          SUNNY     64  62  93 W5        29.81R
FREMONT        SUNNY     62  60  93 W3        29.82R
TEKAMAH        MOSUNNY   63  61  93 W5        29.79R
WAYNE          CLOUDY    62  60  94 NW8       29.82R
$$

NEZ050>053-065>068-078-088>093-011400-
SOUTHEAST NEBRASKA

CITY           SKY/WX    TMP DP  RH WIND       PRES   REMARKS
LINCOLN        SUNNY     63  60  90 S6        29.85R
OMAHA EPPLEY   PTSUNNY   67  62  84 W7        29.80R
BEATRICE       SUNNY     65  62  91 W6        29.85R
FALLS CITY     MOSUNNY   68  64  87 SW10      29.83R
NEBRASKA CITY  SUNNY     67  67 100 SW9       29.82R
PLATTSMOUTH    CLOUDY    67  63  87 SW8       29.81R
$$

NEZ044-045-051>053-067-011400-
OMAHA AREA

CITY           SKY/WX    TMP DP  RH WIND       PRES   REMARKS
OMAHA EPPLEY   PTSUNNY   67  62  84 W7        29.80R
BLAIR          SUNNY     64  62  93 W5        29.81R
FREMONT        SUNNY     62  60  93 W3        29.82R
MILLARD        PTSUNNY   66  63  89 W6        29.81R
OFFUTT AFB     MOSUNNY   68  68  99 W8        29.80R
PLATTSMOUTH    CLOUDY    67  63  87 SW8       29.81R
WAHOO          FAIR      63  60  88 NW5       29.82R
$$


USA.gov is the U.S. government's official web portal to all federal, state and local government web resources and services.